カタログに戻る

MARECS A

運用中通信MEO
NORAD 13010·PAYLOAD·🇪🇺 EU

打ち上げ Dec 20, 1981 から Guiana Space Centre

Loading…

次のパス (今後24時間)

TLE

最新Source: Space-Track

元期: Sep 14, 2026, 14:03 UTC

1 13010U 81122A   26257.58547308 -.00000250  00000-0  00000-0 0  9999
2 13010  11.5118 328.9361 0120050 268.0504 116.5312  0.95040117112212

AllMySatでMARECS Aをリアルタイム追跡

Download on the App Store